Location: El Gandul
(32.4984°N, 116.7135°W)
Time: 09:06:36
(UTC+00:00)

COSMOS 2428 - Pass Details

Date: 03 August 2024
Orbit: 842 x 857 km, 70.9° (Epoch: 08 September)

Event Time Altitude Azimuth Distance (km) Brightness Sun altitude
Exits shadow 12:05:37 14° 260° (W) 2,198 4.3 -11.8°
Maximum altitude 12:08:48 21° 300° (WNW) 1,798 4.1 -11.2°
Drops below altitude 10° 12:13:03 10° 349° (N) 2,474 5.4 -10.4°
Sets 12:16:07 0° 5° (N) 3,416 6.4 -9.8°
